Погода Куминская

Погода Куминская : погода сейчас, прогноз погоды и архив. Всё, что Вы хотите узнать о погоде Куминская!

Поиск расширенной информации на нашем сайте:

Другие новости

Новости СМИ2

Главная страница сайта

Новости сайта

03.07.2017

Напоминаем, что на нашем специализированном сайте Метеоцентр.Азия вы можете получить высокодетализированные автоматические прогнозы погоды по пунктам России, СНГ и мира в авиационном формате (включающие направление и скорость ветра, видимость, явления погоды, количество и форму облачности, нижнюю и верхнюю границу облачности).


Погода Куминская - сегодня

Время (UTC), дата Ветер
(°,м/с) 
Видим.   Явления Облачность Т
(°С)
Тd
(°С)
f(%) Тe
(°С)
Pmin
(гПа)
dP
(гПа)
Po
(мм)
O2
(г/м3)
Тmin Tmax R s Состояние
почвы
00 22.02.18 270 (З) 50000 м    ясно 
-19.4 -21.4 84 -20  1011.8  1.2  751  327           
03 22.02.18 240 (ЮЗ) 10 км    ясно 
-20.9 -23 83 -21  1012.5  0.5  751  329  -20.9    0.6  31  равномерный
сухой снег
100% 
06 22.02.18 230 (ЮЗ) н/о    н/о 
-18.2 -21.7 74 -21  1013.2  0.8  752  326  -21.1         
09 22.02.18 270 (З) 10 км    ясно 
-13.8 -19.7 61 -14  1013.1  0.1  752  321           
12 22.02.18 240 (ЮЗ) н/о    н/о 
-13.6 -18.8 65 -14  1013.7  0.6  752  320           
15 22.02.18 тихо ()   8000 м  слаб. снег  10/0 средняя 
[As op]
-16 -17.9 85 -16  1014.8  753  324    -12.7  0.4     
18 22.02.18 тихо ()   8000 м  слаб. снег  8/0 средняя, верхняя 
[As trans|Ci fib]
-20.5 -22.3 85 -21  1015.8  0.8  754  330           
21 22.02.18 тихо ()   50000 м  в посл. час снег  3/0 верхняя 
[Ci fib]
-22.5 -24.7 82 -23  1016.8  0.9  754  333           
00 23.02.18 тихо ()   50000 м  {снег}  3/0 верхняя 
[Ci fib]
-25.9 -28.3 80 -26  1017.9  0.9  755  338           
03 23.02.18 тихо ()   10 км    3/0 верхняя 
[Ci fib]
-28.1 -30.7 78 -28  1018.8  0.9  755  341  -28.1    0.2  31  равномерный
сухой снег
100% 
06 23.02.18 320 (СЗ) н/о    н/о 
-20 -23.1 76 -20  1018.9  0.5  756  330           
09 23.02.18 280 (З) 10 км    ясно 
-14.2 -20.9 57 -14  1018.6  0.1  756  323           
12 23.02.18 280 (З) н/о    н/о 
-15.1 -21.9 56 -15  1019.5  0.9  756  324           
15 23.02.18 тихо ()   50000 м    ясно 
-23 -25.3 81 -23  1020.1  0.2  757  335    -13.9       
18 23.02.18 тихо ()   50000 м    ясно 
-26.5 -28.7 82 -27  1020.4  0.1  757  340           
21 23.02.18 тихо ()   50000 м    ясно 
-28.4 -31 78 -28  1020.4  757  342           
00 24.02.18 тихо ()   50000 м    ясно 
-30 -32.9 76 -30  1020.6  757  345           
03 24.02.18 тихо ()   10 км    ясно 
-31.2 -34.2 75 -31  1020.9  0.2  757  346  -31.2      31  равномерный
сухой снег
100% 
06 24.02.18 320 (СЗ) н/о    н/о 
-20 -23.5 74 -20  1020.7  0.3  757  331  -31.2         
09 24.02.18 240 (ЮЗ) 10 км    ясно 
-15.9 -22.6 56 -18  1020.7  0.2  757  326           
12 24.02.18 260 (З) н/о    н/о 
-16.2 -23.6 53 -19  1021.2  0.5  758  326           
15 24.02.18 тихо ()   50000 м    ясно 
-24.5 -27.2 78 -25  1022.3  0.7  758  337    -15.2       
18 24.02.18 тихо ()   50000 м    ясно 
-28 -30.4 80 -28  1023.1  0.6  759  343           
21 24.02.18 тихо ()   50000 м    ясно 
-30.5 -33.3 76 -31  1023.6  0.4  759  346           
00 25.02.18 тихо ()   н/о    н/о 
-31.6 -34.7 74 -32  1024.4  0.7  759  348           
Время (UTC), дата Ветер
(°,м/с) 
Видим.   Явления Облачность Т
(°С)
Тd
(°С)
f(%) Тe
(°С)
Pmin
(гПа)
dP
(гПа)
Po
(мм)
O2
(г/м3)
Тmin Tmax R s Состояние
почвы

Для получения пояснительной информации подведите курсор к названию столбца.

ПОГОДА Куминская - архив

Всё, что Вы хотите узнать о погоде Куминская - удобно и подробно!

Выберите нужную дату (начиная с 1 января 2015* года) и нажмите кнопку "Найти".
Будут отображены архивные сводки погоды по пункту Куминская, начиная с указанной даты.


Отображать данные в формате CSV (для использования в таблицах Excel)


Внимание! Наш архив погоды предназначен исключительно для личного некоммерческого использования в познавательных целях. Если Вам необходимы официальные справки о состоянии погоды (для производственных, юридических, коммерческих и т.п. целей), обращайтесь в органы Росгидромета.

*Примечание: данная дата относится к архиву по метеостанциям СССР (Россия, СНГ, Балтия).
Архив по метеостанциям Зарубежной Европы и Азии (кроме Китая) хранится 10 дней, по другим регионам земного шара (Китай, Африка, Америка, Австралия, Океания) - 1 день.

Куминская - район местоположения метеостанции


Название, широта, долгота, высота метеостанции:
Куминская 58.8°ш. 66°д. 64 м над ур. моря [Российская Федерация]

Дополнительная информация

В oтличие oт бoльшинства пoгoдных сайтoв мы публикуем пoдрoбную метеoинфoрмацию в детальнoм прoфессиoнальнoм фoрмате.

Характеристики температуры и влажнoсти вoздуха измеряются на высoте 2 м в тени вдали oт зданий и деревьев.
Скoрoсть ветра измеряется на высoте 10 м (на урoвне рoста челoвека скoрoсть ветра ниже в 1.5-2 раза). Если метеoстанция нахoдится в гoрoде или в лесу, тo скoрoсть ветра занижена на 2-4 м/с пo сравнению с oткрытым местoм. Скoрoсть ветра над акватoриями крупных рек и oзёр, а также на вершинах хoлмoв на 2-5 м/с выше, чем в oбычных услoвиях.
Атмoсфернoе давление в разных тoчках местнoсти мoжет значительнo oтличаться oт давления на метеoстанции, в зависимoсти oт услoвий рельефа (при пoдъёме на 10 м давление пoнижается примернo на 1 мм рт.ст.).